Date String (YYYY-MM-DD hh:mm:ss) UTC,Instrument flags,Ambient pressure (hPa),Sample flow (lpm),Bypass flow (lpm),Sample temperature (°C),Ambient temperature (°C),ASC tube jacket temperature (°C),LED temperature (°C),Box temperature (°C),Sample RH (%),Span deviation,Mass concentration (μg/m³),Mass concentration (μg/m³),Mass concentration (μg/m³)
DateTimeUTC,F1_M11,P_M11,Q1_M11,Q2_M11,T1_M11,T2_M11,T3_M11,T4_M11,T5_M11,U1_M11,ZSPAN_M11,X0_M11,X2_M11,X1_M11
2022-09-09 10:00:00,,0826.2,5.00,0.00,29.6,27.9,00.0,38.6,31.4,24.0,0002.8,0047.39,0017.91,0012.86
2022-09-09 10:01:00,,0826.2,5.00,0.00,29.6,27.9,00.0,38.6,31.4,23.7,0002.6,0047.26,0017.80,0012.79
2022-09-09 10:02:00,,0826.2,5.00,0.00,29.6,28.0,00.0,38.6,31.4,23.6,0002.4,0047.81,0017.80,0012.73
2022-09-09 10:03:00,,0826.2,5.00,0.00,29.6,28.0,00.0,38.6,31.4,23.8,0002.2,0048.60,0017.73,0012.68
2022-09-09 10:04:00,,0826.1,5.00,0.00,29.6,28.1,00.0,38.5,31.4,23.9,0002.3,0048.81,0017.65,0012.62
2022-09-09 10:05:00,,0826.0,5.00,0.00,29.6,28.1,00.0,38.5,31.4,23.8,0002.5,0048.02,0017.51,0012.56
2022-09-09 10:06:00,,0825.9,5.00,0.00,29.6,28.2,00.0,38.5,31.4,23.7,0002.3,0048.80,0017.46,0012.53
2022-09-09 10:07:00,,0825.9,5.00,0.00,29.7,28.2,00.0,38.5,31.5,23.5,0002.1,0049.64,0017.36,0012.48
2022-09-09 10:08:00,,0825.8,4.98,0.00,29.7,28.3,00.0,38.5,31.5,23.4,0002.0,0049.31,0017.41,0012.43
2022-09-09 10:09:00,,0825.9,5.00,0.00,29.7,28.3,00.0,38.5,31.5,23.4,0002.2,0048.82,0017.38,0012.40
2022-09-09 10:10:00,,0825.9,5.01,0.00,29.7,28.4,00.0,38.5,31.5,23.3,0002.0,0048.03,0017.28,0012.36
2022-09-09 10:11:00,,0826.0,4.99,0.00,29.7,28.4,00.0,38.6,31.6,23.2,0001.6,0048.10,0017.25,0012.33
2022-09-09 10:12:00,,0826.0,5.01,0.00,29.7,28.5,00.0,38.6,31.6,23.0,0001.3,0048.28,0017.19,0012.30
2022-09-09 10:13:00,,0826.0,5.00,0.00,29.8,28.5,00.0,38.6,31.6,23.0,0001.1,0047.15,0017.04,0012.26
2022-09-09 10:14:00,,0826.0,4.98,0.00,29.8,28.6,00.0,38.6,31.6,23.2,0000.9,0045.17,0017.01,0012.25
2022-09-09 10:15:00,,0826.1,5.00,0.00,29.8,28.6,00.0,38.6,31.6,23.4,0000.9,0043.28,0016.98,0012.26
2022-09-09 10:16:00,,0826.2,5.00,0.00,29.8,28.7,00.0,38.6,31.7,23.3,0000.8,0043.86,0017.10,0012.28
2022-09-09 10:17:00,,0826.1,4.99,0.00,29.9,28.7,00.0,38.6,31.7,23.2,0000.8,0042.95,0017.14,0012.28
2022-09-09 10:18:00,,0826.1,5.01,0.00,29.9,28.7,00.0,38.6,31.7,22.7,0001.0,0041.47,0017.12,0012.29
2022-09-09 10:19:00,,0826.1,4.98,0.00,29.9,28.8,00.0,38.6,31.8,22.7,0001.3,0040.74,0017.06,0012.29
2022-09-09 10:20:00,,0826.1,5.01,0.00,29.9,28.8,00.0,38.7,31.8,22.7,0001.5,0042.60,0016.99,0012.26
2022-09-09 10:21:00,,0826.2,5.00,0.00,29.9,28.8,00.0,38.7,31.8,22.4,0001.6,0043.32,0016.91,0012.19
2022-09-09 10:22:00,,0826.2,4.99,0.00,30.0,28.8,00.0,38.7,31.8,22.2,0002.2,0042.49,0016.80,0012.09
2022-09-09 10:23:00,,0826.1,5.00,0.00,30.0,28.9,00.0,38.7,31.8,22.0,0002.8,0041.74,0016.72,0012.03
2022-09-09 10:24:00,,0826.1,5.01,0.00,30.0,28.9,00.0,38.7,31.8,21.9,0003.0,0042.40,0016.71,0011.98
2022-09-09 10:25:00,,0826.1,4.98,0.00,30.0,28.9,00.0,38.7,31.9,21.9,0002.9,0042.89,0016.62,0011.90
2022-09-09 10:26:00,,0826.1,5.00,0.00,30.0,28.9,00.0,38.8,31.9,21.8,0002.7,0043.51,0016.42,0011.81
2022-09-09 10:27:00,,0826.2,5.01,0.00,30.0,28.9,00.0,38.8,31.9,21.8,0002.8,0043.55,0016.30,0011.72
2022-09-09 10:28:00,,0826.2,4.98,0.00,30.0,28.9,00.0,38.8,31.9,21.7,0002.5,0043.51,0016.18,0011.61
2022-09-09 10:29:00,,0826.2,5.01,0.00,30.1,28.9,00.0,38.8,31.9,21.7,0002.3,0042.41,0016.15,0011.53
2022-09-09 10:30:00,,0826.2,5.01,0.00,30.1,28.9,00.0,38.8,31.9,21.8,0002.1,0042.10,0016.06,0011.46
2022-09-09 10:31:00,,0826.4,5.00,0.00,30.1,28.9,00.0,38.8,32.0,21.9,0001.7,0039.96,0016.02,0011.45
2022-09-09 10:32:00,,0826.4,4.98,0.00,30.1,28.9,00.0,38.9,32.0,21.9,0001.6,0039.82,0016.01,0011.47
2022-09-09 10:33:00,,0826.5,5.00,0.00,30.1,29.0,00.0,38.9,32.0,22.0,0001.7,0039.56,0016.01,0011.52
2022-09-09 10:34:00,,0826.4,5.01,0.00,30.1,29.0,00.0,38.9,32.0,22.2,0001.4,0040.14,0015.99,0011.55
2022-09-09 10:35:00,,0826.5,4.98,0.00,30.1,29.0,00.0,38.9,32.0,22.2,0001.4,0040.39,0015.93,0011.58
2022-09-09 10:36:00,,0826.5,5.01,0.00,30.1,29.0,00.0,38.9,32.0,21.9,0001.5,0041.12,0016.02,0011.60
2022-09-09 10:37:00,,0826.5,5.00,0.00,30.2,29.0,00.0,38.9,32.0,21.8,0001.4,0040.93,0016.16,0011.61
2022-09-09 10:38:00,,0826.5,4.99,0.00,30.2,29.0,00.0,38.9,32.0,21.7,0001.1,0041.26,0016.14,0011.59
2022-09-09 10:39:00,,0826.5,4.99,0.00,30.2,29.0,00.0,38.9,32.0,21.6,0001.3,0041.06,0016.11,0011.62
2022-09-09 10:40:00,,0826.5,5.01,0.00,30.2,29.1,00.0,39.0,32.0,21.5,0001.5,0042.28,0016.12,0011.65
2022-09-09 10:41:00,,0826.5,5.01,0.00,30.2,29.1,00.0,39.0,32.1,21.7,0001.8,0043.58,0016.16,0011.68
2022-09-09 10:42:00,,0826.5,4.98,0.00,30.2,29.1,00.0,39.0,32.1,21.8,0002.1,0044.35,0016.15,0011.68
2022-09-09 10:43:00,,0826.5,5.01,0.00,30.2,29.1,00.0,39.0,32.1,21.8,0002.0,0043.81,0016.13,0011.67
2022-09-09 10:44:00,,0826.5,5.00,0.00,30.3,29.1,00.0,39.0,32.1,21.8,0001.6,0045.47,0016.18,0011.69
2022-09-09 10:45:00,,0826.4,5.00,0.00,30.3,29.1,00.0,39.0,32.1,21.9,0001.4,0047.81,0016.31,0011.69
2022-09-09 10:46:00,,0826.5,4.98,0.00,30.3,29.1,00.0,39.0,32.1,21.9,0001.4,0047.91,0016.37,0011.68
2022-09-09 10:47:00,,0826.5,5.01,0.00,30.3,29.1,00.0,39.0,32.1,22.0,0001.4,0047.88,0016.36,0011.71
2022-09-09 10:48:00,,0826.5,5.01,0.00,30.3,29.0,00.0,39.1,32.1,22.1,0001.6,0048.93,0016.38,0011.74
2022-09-09 10:49:00,,0826.5,5.00,0.00,30.3,29.0,00.0,39.1,32.1,22.1,0001.7,0048.33,0016.41,0011.78
2022-09-09 10:50:00,,0826.5,5.00,0.00,30.3,29.0,00.0,39.1,32.1,22.2,0001.3,0048.52,0016.49,0011.82
2022-09-09 10:51:00,,0826.5,5.00,0.00,30.3,29.0,00.0,39.1,32.1,22.1,0001.3,0047.29,0016.43,0011.80
2022-09-09 10:52:00,,0826.4,4.99,0.00,30.3,29.0,00.0,39.1,32.1,22.1,0001.1,0046.47,0016.32,0011.77
2022-09-09 10:53:00,,0826.4,5.01,0.00,30.3,29.0,00.0,39.1,32.1,22.1,0001.0,0046.71,0016.37,0011.74
2022-09-09 10:54:00,,0826.5,5.00,0.00,30.3,29.1,00.0,39.1,32.1,22.0,0001.3,0047.98,0016.48,0011.73
2022-09-09 10:55:00,,0826.4,4.99,0.00,30.3,29.1,00.0,39.1,32.1,22.0,0001.7,0048.31,0016.57,0011.71
2022-09-09 10:56:00,,0826.4,5.00,0.00,30.3,29.1,00.0,39.1,32.1,22.1,0001.7,0046.58,0016.48,0011.69
2022-09-09 10:57:00,,0826.4,5.01,0.00,30.3,29.1,00.0,39.1,32.1,22.2,0001.7,0046.93,0016.44,0011.68
2022-09-09 10:58:00,,0826.4,5.01,0.00,30.3,29.1,00.0,39.1,32.1,22.2,0001.9,0047.94,0016.44,0011.65
2022-09-09 10:59:00,,0826.4,4.98,0.00,30.4,29.1,00.0,39.1,32.1,22.2,0001.9,0046.95,0016.38,0011.61
